Terug naar catalogus

STARLINK-35879

ActiefCommunicatieVLEO
NORAD 66960·PAYLOAD·🇺🇸 United States

Gelanceerd Dec 8, 2025 vanaf Cape Canaveral Space Force Station

Loading…

Volgende Passages (komende 24 uur)

TLE

VersSource: CelesTrak SupGP

Epoch: Sep 15, 2026, 02:58 UTC

1 66960C 25288B   26258.12409722 -.00011717  00000+0 -42471-3 0  2589
2 66960  43.0042  33.7078 0001468 261.4911 257.1689 15.27559212    11

Volg STARLINK-35879 in realtime met AllMySat

Download on the App Store